Temperature
18 18 18 18 18 17 18 18 18 18 18 17 17 17 17 16 16 15 15 15 14 14 14 13 13 13 13 13 13 13 13 13 14 14 14 14 14 14 14 15 15 15 15
17 17 17 17 17 18 18 18 18 18 18 17 17 17 17 16 16 15 15 14 14 14 13 13 13 13 13 13 13 13 13 13 13 13 14 14 14 14 14 14 15 15 15
17 17 17 17 17 17 18 18 18 18 18 17 17 17 16 16 15 15 15 14 14 14 13 13 13 13 13 12 13 13 13 13 13 13 13 13 13 14 13 14 14 14 14
18 18 18 18 18 18 18 18 18 18 18 17 17 17 16 16 16 15 15 14 14 13 13 13 13 12 12 12 12 12 12 12 12 12 12 12 12 13 13 13 13 14 14
18 18 18 18 18 18 18 18 18 18 18 17 17 17 16 16 15 15 15 14 14 13 13 13 13 12 12 12 12 12 12 12 12 12 12 12 12 12 12 13 13 13 13
19 19 19 19 18 18 18 18 18 18 17 17 17 17 16 16 15 15 15 14 14 13 13 13 13 12 12 12 12 12 12 11 11 11 11 11 11 11 12 12 12 13 13
19 19 19 19 19 18 18 18 18 18 18 17 17 17 16 16 15 15 15 14 14 14 13 13 13 12 12 12 12 12 11 11 11 11 11 11 11 11 11 11 11 12 12
19 20 20 20 19 19 19 19 19 18 18 18 17 17 16 16 15 15 15 14 14 13 13 13 13 12 12 12 12 11 11 11 11 11 11 11 11 11 11 11 11 11 11
20 20 20 20 20 20 20 19 19 19 18 18 17 17 16 16 16 15 15 14 14 13 13 13 13 12 12 12 12 12 11 11 11 11 11 11 11 10 10 10 10 10 10
21 21 21 21 21 21 20 20 20 19 19 18 18 17 16 16 16 15 15 15 14 14 13 13 13 13 12 12 12 12 11 11 11 11 11 11 11 10 10 10 10 10 10
22 22 22 22 21 21 21 20 20 20 19 18 18 17 17 16 16 16 15 15 15 14 14 14 13 13 13 12 12 12 12 11 11 11 11 11 10 10 10 10 10 10 10
23 22 22 22 22 21 21 21 20 20 19 19 18 17 17 16 16 16 16 15 15 15 14 14 14 13 13 13 12 12 12 12 11 11 11 11 10 10 10 10 10 10 10
23 23 22 22 22 22 22 21 21 20 20 19 18 18 17 17 17 16 16 16 15 15 15 14 14 14 13 13 13 12 12 12 11 11 11 11 10 10 10 10 10 10 10
23 23 23 23 23 22 22 22 21 21 20 19 19 18 18 17 17 17 16 16 16 15 15 15 14 14 14 13 13 12 12 12 12 11 11 11 11 10 10 10 10 10 10
23 23 23 23 23 23 22 22 21 21 20 20 19 19 18 18 17 17 17 16 16 16 15 15 15 14 14 13 13 13 12 12 12 12 11 11 11 10 10 10 10 10 9
22 23 23 23 23 23 23 22 22 21 21 20 20 19 19 18 18 17 17 17 16 16 16 15 15 15 14 14 13 13 13 12 12 12 11 11 11 11 10 10 10 10 9
21 22 22 23 22 23 22 22 21 21 21 20 20 19 19 18 18 18 17 17 17 16 16 16 15 15 15 14 13 13 13 12 12 12 11 11 11 11 10 10 10 10 9
20 21 22 22 22 22 22 22 21 21 20 20 20 19 19 19 18 18 17 17 17 16 16 16 15 15 15 14 14 13 13 12 12 12 12 11 11 11 10 10 10 10 10
19 20 21 21 21 22 21 21 21 20 20 20 19 19 19 18 18 18 17 17 17 16 16 16 15 15 15 14 14 13 13 13 13 12 12 11 11 11 10 10 10 10 10
19 20 20 20 21 20 20 20 20 20 19 19 19 19 18 18 18 17 17 17 16 16 16 15 15 15 15 14 14 13 13 13 13 13 12 12 11 11 11 10 10 10 10
18 19 19 19 19 19 19 19 19 19 19 18 18 18 17 17 17 17 16 16 16 15 15 15 15 15 14 14 14 13 13 13 13 12 12 12 12 11 11 10 10 10 10
18 18 18 18 18 18 18 18 17 17 17 17 17 17 17 16 16 16 15 15 15 15 15 14 14 14 14 14 14 13 13 12 12 12 12 12 12 11 11 10 10 10 9
16 17 17 16 16 16 16 16 16 16 16 16 16 16 15 15 15 15 14 14 14 14 14 13 13 14 14 13 13 13 13 12 12 12 12 12 12 11 11 11 10 10 9
15 15 15 15 15 14 15 15 14 14 15 14 14 14 14 14 13 13 13 13 13 13 12 12 12 12 13 13 13 13 12 12 12 12 12 12 11 11 11 11 10 10 10
14 14 14 14 13 13 13 13 13 13 13 13 13 13 13 12 12 12 12 12 12 11 11 11 11 11 11 12 12 11 12 12 12 11 11 11 11 11 11 11 10 10 10
13 13 13 13 12 12 12 12 12 12 12 12 12 12 11 11 11 11 11 11 11 11 10 10 10 10 10 11 11 11 11 11 11 11 11 11 11 11 11 11 10 10 10
Wind_Speed
5 7 7 8 8 7 7 7 8 7 7 4 4 4 3 2 2 3 4 5 5 5 5 4 3 3 3 3 2 2 3 4 3 2 3 3 3 4 5 4 4 4 3
7 8 8 9 9 9 8 8 8 8 7 5 4 3 3 2 2 1 2 4 4 5 4 4 3 2 3 3 3 3 2 3 4 2 2 3 4 4 5 5 6 6 6
9 9 9 9 9 10 10 10 8 8 7 6 5 4 4 3 2 1 1 2 4 4 4 4 3 3 2 2 2 2 2 2 3 3 2 2 0 2 3 4 5 6 6
8 9 10 10 11 11 9 8 8 8 7 7 7 7 5 4 4 3 2 2 2 3 5 5 4 3 2 2 1 2 1 2 2 2 2 1 1 0 2 3 4 5 6
10 11 12 12 10 9 8 8 8 7 7 7 8 7 5 3 2 2 2 1 1 2 4 6 5 3 2 2 2 2 1 1 1 1 1 2 2 1 1 2 4 4 4
10 9 8 8 7 8 8 8 8 7 7 8 7 8 8 6 5 4 3 2 1 1 2 5 5 4 3 2 2 2 2 1 1 1 1 1 1 1 1 1 2 3 3
10 10 10 10 10 10 10 9 9 8 8 8 8 8 8 8 7 6 5 4 2 2 3 4 4 3 3 3 3 2 2 2 2 2 1 1 1 1 2 1 1 2 2
11 12 12 12 11 11 10 11 11 9 9 9 8 7 7 6 5 6 5 5 4 4 3 4 4 4 4 4 3 2 2 2 2 3 2 2 2 2 3 2 2 1 2
12 12 12 12 12 12 12 12 12 10 10 10 8 7 7 7 7 6 5 4 4 4 4 5 4 4 4 4 3 3 3 3 3 3 3 3 2 3 3 3 3 2 2
10 11 11 12 12 11 11 10 11 12 10 10 9 8 8 8 7 6 6 6 5 4 5 5 5 4 4 4 3 3 3 3 3 3 4 4 3 3 3 4 4 4 4
12 12 11 11 10 9 9 11 11 10 9 10 9 9 8 8 7 7 7 7 6 6 6 6 5 5 5 4 4 4 4 4 4 4 4 6 4 4 3 3 4 5 5
11 10 10 9 10 11 10 11 12 12 11 11 10 9 8 8 8 8 8 7 7 7 7 6 6 6 5 5 5 5 5 5 6 6 5 6 4 5 4 4 5 5 6
9 9 9 10 12 12 12 12 12 13 11 10 10 9 9 9 10 10 8 8 8 7 7 6 7 7 6 6 6 6 6 6 7 7 7 7 5 6 5 5 6 5 5
9 9 10 11 11 12 12 12 12 12 11 11 11 11 12 12 11 10 9 9 8 8 8 8 8 8 7 7 7 7 7 7 7 7 7 7 7 8 8 6 7 6 6
7 10 11 11 10 10 11 12 12 11 11 12 12 13 11 10 9 9 9 9 9 9 8 8 8 8 7 7 8 8 8 8 8 8 8 8 10 11 9 7 7 6 6
6 7 8 9 11 12 12 11 11 11 11 13 14 11 10 10 10 10 9 9 9 9 8 9 9 9 8 11 13 10 8 8 9 9 9 8 10 11 12 13 12 10 9
3 4 5 7 9 10 10 11 11 9 10 11 10 9 10 10 11 10 9 10 10 9 9 10 9 10 11 14 14 14 10 9 10 10 9 8 8 9 8 9 10 11 13
3 1 2 3 5 5 6 7 7 8 9 9 9 8 9 10 9 9 10 10 8 8 9 10 10 10 12 15 15 15 11 10 11 11 11 11 11 10 9 8 9 9 10
4 2 1 1 1 2 3 5 5 6 7 9 9 9 10 10 9 10 11 9 8 9 9 8 10 11 13 15 16 14 8 10 12 12 12 12 12 14 13 10 10 11 10
7 7 6 7 6 3 4 5 4 4 6 7 7 6 7 8 9 10 9 7 8 10 9 10 10 12 13 14 16 14 8 10 11 10 11 14 16 15 14 11 10 12 12
10 10 11 11 8 5 6 4 2 2 3 2 2 3 5 7 8 7 6 6 7 7 8 10 10 11 13 14 16 16 10 11 11 10 10 11 15 18 17 14 12 15 12
11 12 12 11 9 8 6 5 2 2 2 2 1 1 2 4 4 4 5 5 6 7 8 8 10 9 10 13 14 17 17 15 12 12 11 11 15 16 16 13 14 16 12
10 10 11 11 9 8 7 6 4 4 3 3 3 2 2 1 1 2 3 3 4 6 7 7 9 9 8 9 16 17 18 18 14 13 15 15 15 13 12 15 15 12 9
10 10 11 11 9 8 8 6 5 5 5 5 4 3 3 2 2 2 2 3 4 5 6 7 9 9 8 8 8 9 10 13 14 13 13 15 14 12 11 10 10 9 9
7 8 8 8 7 7 8 7 6 5 6 5 4 4 3 3 3 3 3 4 5 6 7 7 8 8 10 11 13 10 9 9 9 8 7 7 7 8 9 9 9 8 8
6 7 7 6 5 6 6 7 6 5 5 5 5 4 3 3 3 4 5 6 7 11 12 13 12 10 13 17 17 17 17 16 12 7 8 10 10 11 11 10 9 8 9
Wind_Direction
180 165 154 153 155 160 160 159 150 147 143 137 136 137 147 147 147 169 167 156 147 139 121 106 88 77 74 61 52 64 44 25 3 27 7 357 10 28 28 18 23 18 3
166 168 162 160 167 176 176 167 164 161 164 155 147 143 135 140 147 148 162 177 167 157 143 129 116 103 88 63 46 52 59 28 25 51 58 13 0 1 12 17 30 27 27
178 178 173 172 173 186 186 179 174 167 164 146 122 102 83 72 89 137 188 209 192 180 163 154 142 128 111 97 68 59 78 55 26 38 92 98 15 320 337 7 19 18 27
180 181 176 177 188 196 184 172 172 166 161 154 153 152 157 170 193 185 189 204 199 193 184 171 159 147 131 124 105 93 85 96 49 27 40 76 149 80 338 336 355 4 19
183 186 186 186 189 186 178 171 166 166 164 163 163 156 155 166 155 149 169 185 217 210 196 179 168 165 159 155 142 126 116 115 120 77 57 65 57 69 108 324 335 344 346
190 191 189 177 178 176 174 169 169 175 170 167 166 165 166 163 159 170 175 189 212 237 197 180 177 179 178 184 185 169 158 157 147 147 149 145 138 146 139 253 311 320 316
191 191 189 186 185 183 181 176 178 183 178 173 175 177 176 173 179 182 185 185 191 206 203 180 182 189 199 202 193 188 193 186 186 192 199 200 208 187 174 190 259 296 307
193 196 196 194 194 192 186 182 186 189 182 181 185 182 178 177 186 188 184 189 196 204 197 191 197 206 209 208 198 204 214 204 211 216 208 215 224 205 195 190 189 283 304
196 200 198 196 196 195 193 190 190 190 188 187 183 184 184 186 189 187 184 189 199 204 197 199 204 213 213 211 200 216 228 216 226 230 226 227 231 217 217 209 196 199 263
200 203 200 200 202 200 196 188 190 194 190 185 186 192 191 193 187 180 190 199 204 202 193 204 210 217 221 216 210 227 232 228 237 229 231 237 239 231 222 216 214 211 217
203 204 204 202 200 195 190 190 192 191 187 188 189 188 191 191 187 193 202 202 203 202 204 210 214 223 230 225 220 235 240 241 250 241 233 244 238 238 235 222 218 217 213
207 203 200 193 192 193 193 194 194 194 195 189 187 192 190 186 192 204 209 203 206 209 210 211 217 228 232 228 226 239 241 240 250 251 242 250 244 239 239 230 230 229 220
208 201 195 195 199 198 195 195 195 197 191 182 186 192 193 194 201 208 208 205 208 211 212 211 220 229 233 233 232 233 241 243 247 248 244 249 242 247 244 237 241 242 237
210 204 203 205 203 200 196 195 198 194 186 182 188 197 202 202 205 206 206 208 209 210 214 217 223 229 233 235 237 236 240 245 247 244 243 245 239 244 246 245 243 243 244
219 213 210 209 202 199 198 197 196 191 185 185 195 206 205 201 203 206 210 212 212 217 218 221 228 231 232 235 232 234 238 242 249 249 246 245 244 243 240 241 242 237 242
229 218 211 206 202 201 200 197 197 192 183 191 202 204 197 199 206 211 212 213 217 219 218 222 228 232 235 234 230 226 234 239 243 251 253 253 255 255 252 249 245 233 235
267 236 214 211 209 203 196 197 199 181 184 199 203 198 198 206 213 214 212 217 220 219 222 228 229 236 239 238 239 235 231 237 241 244 251 256 253 245 251 257 260 252 240
336 285 234 225 217 196 189 185 165 172 190 203 209 205 202 212 213 211 218 222 218 218 226 231 232 237 244 240 239 239 235 240 244 243 243 246 253 249 240 249 258 260 256
344 331 360 79 104 151 162 145 156 171 190 208 214 211 207 211 210 215 222 221 218 224 226 230 230 235 245 241 238 235 235 241 247 246 242 240 247 247 234 238 251 262 266
26 29 40 50 52 61 111 127 155 174 210 221 223 212 203 209 216 222 224 220 220 231 232 237 235 236 245 244 238 229 230 241 249 250 245 237 237 241 232 230 237 250 259
40 46 52 50 40 52 94 101 104 209 233 212 198 196 204 212 220 225 225 224 227 235 238 245 246 242 244 248 243 231 225 235 244 249 249 243 231 233 234 227 231 238 244
43 50 55 47 33 35 64 70 30 340 45 92 140 214 221 231 229 224 236 234 232 242 250 253 260 256 250 247 248 238 229 229 237 244 246 242 232 229 231 229 230 235 240
48 52 60 54 39 31 49 55 7 9 39 49 38 18 13 317 278 241 248 254 242 247 257 258 264 268 261 253 246 246 242 233 234 245 242 238 235 231 236 235 232 232 234
51 53 59 55 39 28 38 40 23 34 54 49 33 30 28 1 333 306 277 262 259 259 263 265 267 271 273 269 263 256 254 246 240 245 247 243 238 234 236 239 236 229 226
59 63 68 63 43 30 31 25 25 48 57 48 36 26 17 353 336 322 287 272 260 256 262 267 267 273 278 273 266 266 265 257 249 241 240 237 233 232 234 235 236 232 227
65 65 61 56 37 30 25 16 18 40 51 37 20 9 356 346 339 330 322 293 278 286 278 267 265 269 265 274 278 275 267 260 249 229 239 239 235 234 235 235 236 233 231
Height
1515 1518 1521 1525 1529 1532 1535 1538 1541 1544 1547 1549 1551 1552 1554 1555 1556 1556 1557 1556 1556 1555 1554 1553 1552 1552 1551 1551 1550 1550 1549 1549 1549 1549 1550 1550 1550 1550 1550 1550 1550 1551 1552
1513 1517 1520 1523 1527 1530 1534 1537 1540 1543 1546 1548 1550 1552 1553 1554 1555 1555 1556 1556 1556 1555 1554 1553 1553 1552 1551 1551 1550 1550 1549 1548 1548 1549 1549 1549 1551 1550 1550 1550 1549 1550 1550
1511 1514 1517 1521 1525 1529 1532 1536 1539 1542 1545 1547 1549 1551 1552 1553 1554 1554 1554 1555 1555 1554 1554 1553 1553 1552 1551 1551 1550 1549 1549 1548 1548 1548 1549 1549 1549 1550 1550 1549 1549 1549 1550
1510 1513 1516 1520 1523 1527 1531 1535 1538 1541 1544 1546 1548 1549 1550 1551 1552 1553 1553 1553 1554 1553 1553 1553 1553 1552 1552 1551 1550 1549 1548 1548 1548 1548 1548 1549 1549 1549 1549 1550 1549 1549 1549
1508 1511 1515 1518 1522 1526 1530 1534 1537 1540 1542 1545 1546 1548 1549 1550 1550 1551 1551 1552 1552 1552 1552 1552 1552 1552 1551 1550 1549 1549 1548 1548 1547 1547 1547 1547 1547 1548 1548 1548 1548 1549 1548
1506 1510 1514 1517 1521 1525 1529 1532 1535 1538 1541 1543 1545 1546 1547 1548 1548 1549 1549 1550 1550 1551 1551 1551 1551 1551 1550 1550 1549 1548 1548 1547 1547 1547 1546 1546 1546 1546 1547 1546 1546 1546 1547
1504 1508 1511 1515 1518 1522 1526 1530 1533 1536 1539 1541 1543 1544 1545 1546 1546 1547 1547 1548 1549 1549 1550 1550 1550 1550 1549 1549 1548 1548 1547 1546 1546 1546 1545 1545 1545 1545 1545 1545 1544 1544 1544
1502 1505 1509 1513 1516 1520 1524 1527 1531 1534 1536 1539 1540 1542 1543 1544 1544 1545 1545 1546 1547 1548 1548 1548 1548 1548 1548 1547 1547 1547 1546 1545 1545 1544 1544 1544 1544 1544 1543 1543 1543 1541 1541
1499 1503 1507 1510 1514 1518 1521 1525 1528 1531 1534 1536 1538 1540 1541 1542 1542 1543 1543 1544 1545 1545 1546 1546 1546 1546 1546 1545 1545 1545 1544 1544 1543 1543 1543 1542 1542 1542 1541 1541 1541 1541 1539
1497 1500 1504 1508 1511 1515 1519 1522 1525 1528 1531 1533 1535 1537 1538 1539 1540 1541 1541 1542 1543 1543 1543 1544 1544 1544 1544 1543 1543 1543 1542 1542 1541 1541 1540 1540 1540 1539 1539 1538 1538 1537 1537
1493 1497 1501 1505 1509 1512 1516 1519 1522 1525 1528 1530 1532 1534 1536 1537 1538 1539 1539 1540 1540 1541 1541 1541 1541 1541 1541 1541 1541 1540 1540 1539 1539 1538 1538 1537 1537 1536 1536 1535 1535 1534 1533
1490 1494 1498 1502 1505 1508 1511 1515 1518 1521 1524 1527 1529 1531 1533 1534 1535 1536 1537 1537 1538 1538 1539 1539 1539 1539 1539 1538 1538 1537 1537 1536 1536 1535 1535 1534 1534 1533 1533 1532 1531 1530 1530
1487 1491 1494 1497 1500 1503 1507 1510 1513 1517 1520 1523 1525 1527 1529 1530 1531 1533 1534 1534 1535 1536 1536 1536 1536 1536 1536 1535 1535 1534 1534 1533 1532 1532 1531 1531 1530 1529 1529 1528 1527 1526 1525
1483 1486 1489 1492 1495 1498 1502 1505 1509 1512 1516 1518 1520 1522 1524 1526 1528 1530 1530 1531 1532 1532 1533 1533 1533 1533 1533 1532 1531 1531 1530 1529 1528 1528 1527 1527 1526 1525 1524 1523 1522 1522 1521
1479 1481 1484 1487 1490 1493 1497 1500 1504 1508 1511 1514 1516 1518 1521 1523 1524 1526 1527 1528 1529 1529 1529 1529 1529 1529 1529 1528 1528 1527 1526 1525 1524 1524 1523 1522 1521 1520 1519 1518 1517 1517 1516
1475 1476 1479 1481 1484 1488 1491 1495 1499 1503 1506 1509 1511 1514 1517 1518 1520 1521 1523 1524 1525 1525 1525 1525 1525 1525 1524 1524 1523 1523 1521 1521 1520 1519 1518 1517 1516 1515 1514 1513 1512 1511 1510
1473 1474 1476 1478 1481 1484 1487 1491 1494 1498 1501 1504 1507 1510 1512 1514 1515 1517 1518 1519 1520 1521 1521 1521 1521 1520 1520 1519 1519 1518 1517 1515 1514 1514 1513 1512 1511 1510 1509 1508 1507 1506 1505
1472 1472 1474 1476 1478 1481 1484 1488 1491 1495 1497 1500 1502 1505 1507 1509 1511 1513 1513 1514 1515 1516 1516 1516 1516 1515 1515 1514 1513 1512 1511 1510 1509 1508 1507 1506 1505 1504 1503 1502 1501 1500 1500
1472 1472 1472 1474 1477 1479 1482 1485 1488 1491 1493 1495 1498 1500 1502 1504 1506 1507 1508 1509 1510 1510 1510 1510 1509 1509 1508 1508 1507 1506 1505 1503 1502 1502 1501 1500 1499 1498 1498 1496 1495 1494 1494
1472 1472 1472 1474 1475 1478 1481 1483 1485 1487 1489 1491 1493 1496 1497 1499 1500 1501 1502 1503 1504 1503 1503 1503 1502 1502 1501 1501 1501 1500 1498 1496 1495 1494 1494 1493 1492 1492 1491 1490 1488 1487 1487
1473 1473 1473 1474 1476 1478 1480 1481 1483 1484 1486 1488 1490 1491 1492 1493 1494 1495 1496 1497 1497 1496 1496 1496 1495 1495 1494 1493 1493 1492 1490 1488 1487 1486 1486 1485 1485 1484 1484 1483 1481 1480 1480
1475 1475 1475 1476 1478 1479 1479 1480 1482 1483 1484 1485 1486 1487 1487 1488 1488 1489 1489 1490 1489 1489 1488 1487 1487 1486 1486 1485 1484 1483 1482 1481 1479 1477 1477 1477 1477 1477 1476 1475 1474 1474 1473
1478 1477 1478 1479 1480 1481 1480 1480 1481 1481 1482 1482 1482 1482 1482 1483 1483 1483 1483 1482 1482 1481 1480 1479 1478 1477 1477 1476 1475 1474 1473 1471 1470 1468 1468 1468 1468 1468 1467 1467 1466 1466 1464
1481 1481 1481 1482 1482 1482 1481 1481 1481 1480 1480 1479 1479 1479 1479 1479 1479 1478 1477 1476 1475 1474 1473 1471 1470 1468 1467 1466 1466 1464 1463 1461 1460 1459 1459 1459 1458 1458 1458 1458 1457 1456 1455
1485 1485 1485 1485 1485 1484 1483 1482 1481 1480 1479 1478 1478 1477 1477 1476 1475 1474 1473 1471 1470 1469 1467 1465 1463 1460 1458 1457 1457 1455 1452 1451 1450 1449 1448 1448 1447 1447 1447 1447 1448 1447 1447
1488 1488 1487 1487 1486 1485 1484 1483 1482 1480 1479 1478 1477 1476 1475 1473 1471 1470 1468 1466 1465 1463 1461 1459 1456 1453 1451 1449 1447 1445 1443 1441 1441 1439 1437 1436 1436 1436 1437 1437 1438 1438 1437